Weather History for CYRB - October, 2012

Change the Weather History Date:

Sunday, October 7, 2012

  Actual Average Record
Temperature  
Mean Temperature 15 °F -  
Max Temperature 19 °F 14 °F 33 °F (2008)
Min Temperature 11 °F 6 °F -9 °F (1996)
Degree Days  
Heating Degree Days 50    
Moisture  
Dew Point 10 °F    
Average Humidity 76    
Maximum Humidity 86    
Minimum Humidity 65    
Precipitation  
Precipitation 0.00 in - - ()
Sea Level Pressure  
Sea Level Pressure 30.12 in    
Wind  
Wind Speed 12 mph ()    
Max Wind Speed 20 mph    
Max Gust Speed -    
Visibility 15.0 miles    
Events Snow    
Averages and records for this station are not official NWS values.
T = Trace of Precipitation, MM = Missing Value Source: Averaged Metar Reports

Daily Weather History Graph

Daily Weather History Graph

Search for Another Location

Airport or City:

Trip Planner

Search our weather history database for the weather conditions in past years. The results will help you decide how hot, cold, wet, or windy it might be!

Date:

Astronomy

Oct. 07, 2012 Rise Set
Actual Time 8:21 AM CDT 5:51 PM CDT
Civil Twilight 7:00 AM CDT 7:11 PM CDT
Nautical Twilight 5:27 AM CDT 8:44 PM CDT
Astronomical Twilight 3:30 AM CDT 10:37 PM CDT
Moon No Moon Rise No Moon Set
Length of Visible Light 12h 10m
Length of Day
9h 30m
Waning Gibbous, 56% of the Moon is Illuminated
Oct 7
Waning Gibbous
Oct 8
Last Quarter
Oct 15
New
Oct 21
First Quarter
Oct 29
Full

Hourly Weather History & Observations

Time (CDT) Temp. Windchill Dew Point Humidity Pressure Visibility Wind Dir Wind Speed Gust Speed Precip Events Conditions
12:00 AM 17.6 °F 1.3 °F 10.4 °F 73% 30.04 in 15.0 mi North 19.6 mph - N/A Snow Light Snow
1:00 AM 17.6 °F 3.7 °F 10.4 °F 73% 30.05 in 15.0 mi North 13.8 mph - N/A Snow Light Snow
2:00 AM 17.6 °F 2.7 °F 12.2 °F 79% 30.06 in 15.0 mi North 16.1 mph - N/A Snow Light Snow
4:00 AM 14.0 °F -1.4 °F 8.6 °F 79% 30.09 in 15.0 mi NNW 15.0 mph - N/A Snow Light Snow
5:00 AM 15.8 °F -0.2 °F 8.6 °F 73% 30.10 in 15.0 mi NNW 17.3 mph - N/A Snow Light Snow
6:00 AM 15.8 °F 2.1 °F 10.4 °F 79% 30.12 in 15.0 mi NNW 12.7 mph - N/A Snow Light Snow
6:43 AM - - - N/A% - 15.0 mi NNW 12.7 mph - N/A   Mostly Cloudy
7:00 AM 15 °F - 8 °F 65% 30.12 in 15 mi North 18.4 mph - -   Partly Cloudy
7:00 AM 14.0 °F -3.0 °F 8.6 °F 79% 30.12 in 15.0 mi North 18.4 mph - N/A   Mostly Cloudy
8:00 AM 15.8 °F 0.9 °F 8.6 °F 73% 30.12 in 15.0 mi North 15.0 mph - N/A   Mostly Cloudy
8:18 AM - - - N/A% - 15.0 mi NW 4.6 mph - N/A   Overcast
9:00 AM 17.6 °F 5.7 °F 12.2 °F 79% 30.13 in 15.0 mi North 10.4 mph - N/A Snow Light Snow
9:33 AM - - - N/A% - 15.0 mi North 12.7 mph - N/A   Overcast
10:00 AM 17.6 °F 3.2 °F 12.2 °F 79% 30.13 in 15.0 mi North 15.0 mph - N/A   Overcast
11:00 AM 17.6 °F 7.3 °F 12.2 °F 79% 30.13 in 15.0 mi NW 8.1 mph - N/A   Mostly Cloudy
11:52 AM - - - N/A% - 15.0 mi NW 12.7 mph - N/A   Overcast
12:00 PM 17.6 °F 5.7 °F 14.0 °F 86% 30.14 in 15.0 mi NNW 10.4 mph - N/A   Overcast
1:00 PM 18 °F - 12 °F 70% 30.14 in 15 mi NW 9.2 mph - -   Partly Cloudy
1:00 PM 17.6 °F 6.4 °F 12.2 °F 79% 30.14 in 15.0 mi NW 9.2 mph - N/A   Overcast
1:32 PM - - - N/A% - 15.0 mi NNW 10.4 mph - N/A   Unknown
2:00 PM 19.4 °F 6.6 °F 12.2 °F 74% 30.14 in 15.0 mi North 12.7 mph - N/A Snow Light Snow
2:19 PM - - - N/A% - 15.0 mi NNW 10.4 mph - N/A   Overcast
3:00 PM 19.4 °F 6.6 °F 12.2 °F 74% 30.15 in 15.0 mi North 12.7 mph - N/A   Overcast
4:00 PM 17.6 °F 5.0 °F 12.2 °F 79% 30.16 in 15.0 mi NNW 11.5 mph - N/A Snow Light Snow
5:00 PM 17.6 °F 3.7 °F 10.4 °F 73% 30.16 in 15.0 mi North 13.8 mph - N/A Snow Light Snow
6:00 PM 17.6 °F 5.0 °F 10.4 °F 73% 30.16 in 15.0 mi NNW 11.5 mph - N/A Snow Light Snow
7:00 PM 16 °F - 10 °F 68% 30.16 in 15 mi NNW 9.2 mph - - Snow Light Snow
7:00 PM 15.8 °F 4.2 °F 10.4 °F 79% 30.16 in 15.0 mi NNW 9.2 mph - N/A Snow Light Snow
8:00 PM 15.8 °F 4.2 °F 10.4 °F 79% 30.15 in 15.0 mi NNW 9.2 mph - N/A Snow Light Snow
8:42 PM - - - N/A% - 15.0 mi NNW 6.9 mph - N/A   Scattered Clouds
9:00 PM 12.2 °F -0.2 °F 6.8 °F 79% 30.14 in 15.0 mi NNW 9.2 mph - N/A   Scattered Clouds
10:00 PM 12.2 °F 2.9 °F 6.8 °F 79% 30.12 in 15.0 mi North 5.8 mph - N/A   Partly Cloudy
11:00 PM 12.2 °F -0.2 °F 8.6 °F 85% 30.10 in 15.0 mi North 9.2 mph - N/A   Scattered Clouds